| time (UTC) | temp C | wind direction | speed KPH | gust KPH | rain 1hr cm | rain 24hr cm | rain mn cm | humidity % | barometer mb |
| 20260507213018 | 26 | 325 | 1.6 | 9.7 | 0.00 | 0.00 | 0.00 | 18 | 1007.5 |
| 20260507212515 | 26 | 192 | 3.2 | 17.7 | 0.00 | 0.00 | 0.00 | 18 | 1007.5 |
| 20260507212015 | 25 | 233 | 9.7 | 16.1 | 0.00 | 0.00 | 0.00 | 18 | 1007.6 |
| 20260507211521 | 25 | 169 | 9.7 | 16.1 | 0.00 | 0.00 | 0.00 | 18 | 1007.6 |
| 20260507211013 | 26 | 189 | 8.0 | 14.5 | 0.00 | 0.00 | 0.00 | 18 | 1007.7 |
| 20260507210512 | 25 | 160 | 3.2 | 17.7 | 0.00 | 0.00 | 0.00 | 18 | 1007.8 |
| 20260507210012 | 25 | 230 | 9.7 | 17.7 | 0.00 | 0.00 | 0.00 | 18 | 1007.9 |
| 20260507205511 | 25 | 248 | 8.0 | 17.7 | 0.00 | 0.00 | 0.00 | 19 | 1007.9 |
| 20260507205011 | 26 | 231 | 8.0 | 14.5 | 0.00 | 0.00 | 0.00 | 19 | 1008.0 |
| 20260507204510 | 25 | 191 | 3.2 | 16.1 | 0.00 | 0.00 | 0.00 | 19 | 1008.0 |
| 20260507204009 | 25 | 283 | 9.7 | 16.1 | 0.00 | 0.00 | 0.00 | 20 | 1008.1 |
| 20260507203511 | 25 | 277 | 3.2 | 11.3 | 0.00 | 0.00 | 0.00 | 20 | 1008.1 |
| 20260507203010 | 25 | 155 | 6.4 | 14.5 | 0.00 | 0.00 | 0.00 | 19 | 1008.2 |
| 20260507202507 | 25 | 216 | 9.7 | 14.5 | 0.00 | 0.00 | 0.00 | 19 | 1008.3 |
| 20260507202006 | 25 | 173 | 0.0 | 11.3 | 0.00 | 0.00 | 0.00 | 19 | 1008.5 |
| 20260507201505 | 25 | 320 | 4.8 | 16.1 | 0.00 | 0.00 | 0.00 | 19 | 1008.6 |
| 20260507201007 | 25 | 105 | 4.8 | 12.9 | 0.00 | 0.00 | 0.00 | 20 | 1008.8 |
| 20260507200503 | 25 | 195 | 0.0 | 9.7 | 0.00 | 0.00 | 0.00 | 21 | 1008.8 |
| 20260507200002 | 25 | 55 | 3.2 | 16.1 | 0.00 | 0.00 | 0.00 | 20 | 1008.9 |
| 20260507195503 | 25 | 193 | 8.0 | 16.1 | 0.00 | 0.00 | 0.00 | 21 | 1008.9 |
| 20260507195101 | 25 | 182 | 8.0 | 16.1 | 0.00 | 0.00 | 0.00 | 20 | 1009.1 |
| 20260507194559 | 24 | 217 | 6.4 | 16.1 | 0.00 | 0.00 | 0.00 | 21 | 1009.1 |
| 20260507194057 | 24 | 247 | 8.0 | 17.7 | 0.00 | 0.00 | 0.00 | 22 | 1009.2 |
| 20260507193558 | 24 | 195 | 11.3 | 17.7 | 0.00 | 0.00 | 0.00 | 21 | 1009.3 |
| 20260507193058 | 24 | 195 | 3.2 | 16.1 | 0.00 | 0.00 | 0.00 | 21 | 1009.5 |
| 20260507192558 | 23 | 171 | 6.4 | 16.1 | 0.00 | 0.00 | 0.00 | 21 | 1009.6 |
| 20260507192054 | 24 | 231 | 11.3 | 22.5 | 0.00 | 0.00 | 0.00 | 22 | 1009.6 |
| 20260507191558 | 23 | 183 | 1.6 | 22.5 | 0.00 | 0.00 | 0.00 | 21 | 1009.7 |
| 20260507191053 | 23 | 263 | 12.9 | 20.9 | 0.00 | 0.00 | 0.00 | 22 | 1009.8 |
| 20260507190553 | 23 | 245 | 6.4 | 20.9 | 0.00 | 0.00 | 0.00 | 21 | 1010.0 |
| 20260507190057 | 23 | 215 | 8.0 | 17.7 | 0.00 | 0.00 | 0.00 | 22 | 1010.0 |
| 20260507185553 | 23 | 318 | 4.8 | 17.7 | 0.00 | 0.00 | 0.00 | 22 | 1010.1 |
| 20260507185048 | 23 | 258 | 4.8 | 17.7 | 0.00 | 0.00 | 0.00 | 23 | 1010.1 |
| 20260507184556 | 23 | 289 | 6.4 | 16.1 | 0.00 | 0.00 | 0.00 | 24 | 1010.2 |
| 20260507184047 | 23 | 261 | 11.3 | 16.1 | 0.00 | 0.00 | 0.00 | 23 | 1010.2 |
| 20260507183546 | 23 | 268 | 4.8 | 16.1 | 0.00 | 0.00 | 0.00 | 23 | 1010.2 |
| 20260507183048 | 23 | 270 | 4.8 | 9.7 | 0.00 | 0.00 | 0.00 | 23 | 1010.3 |
| 20260507182545 | 24 | 339 | 3.2 | 11.3 | 0.00 | 0.00 | 0.00 | 23 | 1010.4 |
| 20260507182044 | 23 | 90 | 1.6 | 14.5 | 0.00 | 0.00 | 0.00 | 23 | 1010.5 |
| 20260507181540 | 23 | 60 | 1.6 | 14.5 | 0.00 | 0.00 | 0.00 | 24 | 1010.5 |
| 20260507181039 | 23 | 355 | 4.8 | 14.5 | 0.00 | 0.00 | 0.00 | 24 | 1010.6 |
| 20260507180542 | 22 | 259 | 3.2 | 11.3 | 0.00 | 0.00 | 0.00 | 24 | 1010.7 |
| 20260507180039 | 22 | 262 | 3.2 | 14.5 | 0.00 | 0.00 | 0.00 | 24 | 1010.8 |
| 20260507175537 | 22 | 350 | 8.0 | 14.5 | 0.00 | 0.00 | 0.00 | 24 | 1010.9 |
| 20260507175033 | 22 | 248 | 4.8 | 11.3 | 0.00 | 0.00 | 0.00 | 27 | 1011.0 |
| 20260507174536 | 22 | 177 | 3.2 | 11.3 | 0.00 | 0.00 | 0.00 | 26 | 1010.9 |
| 20260507174034 | 22 | 179 | 4.8 | 11.3 | 0.00 | 0.00 | 0.00 | 26 | 1011.1 |
| 20260507173532 | 22 | 148 | 6.4 | 12.9 | 0.00 | 0.00 | 0.00 | 26 | 1011.1 |
| 20260507173032 | 22 | 151 | 4.8 | 11.3 | 0.00 | 0.00 | 0.00 | 27 | 1011.2 |
| 20260507172528 | 21 | 161 | 6.4 | 14.5 | 0.00 | 0.00 | 0.00 | 27 | 1011.2 |
| 20260507172026 | 21 | 189 | 8.0 | 14.5 | 0.00 | 0.00 | 0.00 | 27 | 1011.3 |
| 20260507171525 | 21 | 179 | 6.4 | 9.7 | 0.00 | 0.00 | 0.00 | 27 | 1011.4 |
| 20260507171024 | 21 | 170 | 1.6 | 9.7 | 0.00 | 0.00 | 0.00 | 28 | 1011.4 |
| 20260507170523 | 21 | 185 | 3.2 | 9.7 | 0.00 | 0.00 | 0.00 | 29 | 1011.4 |
| 20260507170022 | 21 | 96 | 0.0 | 8.0 | 0.00 | 0.00 | 0.00 | 28 | 1011.5 |
| 20260507165519 | 21 | 29 | 3.2 | 8.0 | 0.00 | 0.00 | 0.00 | 28 | 1011.7 |
| 20260507165018 | 21 | 27 | 4.8 | 12.9 | 0.00 | 0.00 | 0.00 | 29 | 1011.6 |
| 20260507164517 | 21 | 6 | 6.4 | 12.9 | 0.00 | 0.00 | 0.00 | 28 | 1011.7 |
| 20260507164016 | 21 | 128 | 1.6 | 6.4 | 0.00 | 0.00 | 0.00 | 28 | 1011.8 |
| 20260507163514 | 20 | 140 | 3.2 | 6.4 | 0.00 | 0.00 | 0.00 | 29 | 1011.9 |
| 20260507163012 | 20 | 337 | 3.2 | 6.4 | 0.00 | 0.00 | 0.00 | 30 | 1011.9 |
| 20260507162511 | 20 | 27 | 0.0 | 8.0 | 0.00 | 0.00 | 0.00 | 30 | 1012.0 |
| 20260507162010 | 19 | 36 | 3.2 | 14.5 | 0.00 | 0.00 | 0.00 | 31 | 1012.0 |
| 20260507161508 | 19 | 40 | 4.8 | 11.3 | 0.00 | 0.00 | 0.00 | 31 | 1012.2 |
| 20260507161006 | 18 | 341 | 3.2 | 9.7 | 0.00 | 0.00 | 0.00 | 29 | 1012.2 |
| 20260507160505 | 18 | 8 | 4.8 | 11.3 | 0.00 | 0.00 | 0.00 | 30 | 1012.4 |
| 20260507160004 | 18 | 50 | 4.8 | 11.3 | 0.00 | 0.00 | 0.00 | 31 | 1012.5 |
| 20260507155502 | 18 | 110 | 6.4 | 11.3 | 0.00 | 0.00 | 0.00 | 32 | 1012.5 |
| 20260507155001 | 18 | 22 | 4.8 | 11.3 | 0.00 | 0.00 | 0.00 | 35 | 1012.5 |
| 20260507154601 | 17 | 12 | 6.4 | 16.1 | 0.00 | 0.00 | 0.00 | 36 | 1012.5 |
| 20260507154101 | 17 | 43 | 6.4 | 16.1 | 0.00 | 0.00 | 0.00 | 36 | 1012.5 |
| 20260507153556 | 17 | 345 | 6.4 | 16.1 | 0.00 | 0.00 | 0.00 | 37 | 1012.5 |
| 20260507153059 | 16 | 27 | 8.0 | 16.1 | 0.00 | 0.00 | 0.00 | 38 | 1012.5 |
| 20260507152555 | 16 | 54 | 8.0 | 14.5 | 0.00 | 0.00 | 0.00 | 37 | 1012.5 |
| 20260507152051 | 16 | 14 | 4.8 | 14.5 | 0.00 | 0.00 | 0.00 | 38 | 1012.6 |
| 20260507151550 | 15 | 39 | 8.0 | 16.1 | 0.00 | 0.00 | 0.00 | 40 | 1012.6 |
| 20260507151049 | 15 | 360 | 9.7 | 16.1 | 0.00 | 0.00 | 0.00 | 40 | 1012.6 |
| 20260507150547 | 15 | 29 | 6.4 | 16.1 | 0.00 | 0.00 | 0.00 | 41 | 1012.6 |
| 20260507150046 | 15 | 14 | 11.3 | 17.7 | 0.00 | 0.00 | 0.00 | 41 | 1012.6 |
| 20260507145545 | 15 | 10 | 9.7 | 17.7 | 0.00 | 0.00 | 0.00 | 41 | 1012.6 |
| 20260507145043 | 15 | 29 | 8.0 | 14.5 | 0.00 | 0.00 | 0.00 | 42 | 1012.7 |
| 20260507144543 | 14 | 350 | 6.4 | 16.1 | 0.00 | 0.00 | 0.00 | 43 | 1012.7 |
| 20260507144040 | 14 | 33 | 8.0 | 17.7 | 0.00 | 0.00 | 0.00 | 43 | 1012.8 |
| 20260507143539 | 13 | 50 | 11.3 | 17.7 | 0.00 | 0.00 | 0.00 | 43 | 1012.8 |
| 20260507143038 | 13 | 37 | 12.9 | 19.3 | 0.00 | 0.00 | 0.00 | 44 | 1012.7 |
| 20260507142538 | 13 | 31 | 12.9 | 19.3 | 0.00 | 0.00 | 0.00 | 44 | 1012.8 |
| 20260507142035 | 13 | 17 | 12.9 | 19.3 | 0.00 | 0.00 | 0.00 | 45 | 1012.8 |
| 20260507141532 | 13 | 46 | 12.9 | 17.7 | 0.00 | 0.00 | 0.00 | 44 | 1012.8 |
| 20260507141035 | 12 | 40 | 8.0 | 17.7 | 0.00 | 0.00 | 0.00 | 44 | 1012.9 |
| 20260507140530 | 13 | 24 | 9.7 | 14.5 | 0.00 | 0.00 | 0.00 | 44 | 1012.9 |
| 20260507140031 | 13 | 33 | 6.4 | 11.3 | 0.00 | 0.00 | 0.00 | 44 | 1013.0 |
| 20260507135526 | 12 | 35 | 4.8 | 14.5 | 0.00 | 0.00 | 0.00 | 44 | 1012.8 |
| 20260507135025 | 12 | 85 | 6.4 | 11.3 | 0.00 | 0.00 | 0.00 | 44 | 1012.9 |
| 20260507134527 | 12 | 100 | 6.4 | 11.3 | 0.00 | 0.00 | 0.00 | 45 | 1012.8 |
| 20260507134021 | 12 | 54 | 4.8 | 9.7 | 0.00 | 0.00 | 0.00 | 46 | 1012.7 |
| 20260507133520 | 12 | 15 | 4.8 | 14.5 | 0.00 | 0.00 | 0.00 | 47 | 1012.5 |
| 20260507133018 | 11 | 31 | 6.4 | 16.1 | 0.00 | 0.00 | 0.00 | 47 | 1012.4 |
| 20260507132517 | 11 | 38 | 9.7 | 17.7 | 0.00 | 0.00 | 0.00 | 47 | 1012.4 |
| 20260507132015 | 11 | 25 | 9.7 | 17.7 | 0.00 | 0.00 | 0.00 | 47 | 1012.3 |
| 20260507131516 | 11 | 32 | 11.3 | 20.9 | 0.00 | 0.00 | 0.00 | 47 | 1012.2 |
| 20260507131014 | 11 | 51 | 11.3 | 22.5 | 0.00 | 0.00 | 0.00 | 48 | 1012.2 |
| 20260507130512 | 10 | 32 | 11.3 | 20.9 | 0.00 | 0.00 | 0.00 | 48 | 1012.2 |
| 20260507130010 | 10 | 27 | 11.3 | 20.9 | 0.00 | 0.00 | 0.00 | 48 | 1012.1 |
| 20260507125509 | 10 | 31 | 11.3 | 17.7 | 0.00 | 0.00 | 0.00 | 48 | 1012.1 |
| 20260507125007 | 10 | 38 | 8.0 | 19.3 | 0.00 | 0.00 | 0.00 | 47 | 1012.1 |
| 20260507124506 | 10 | 42 | 12.9 | 19.3 | 0.00 | 0.00 | 0.00 | 47 | 1012.1 |
| 20260507124006 | 10 | 50 | 12.9 | 19.3 | 0.00 | 0.00 | 0.00 | 46 | 1012.1 |
| 20260507123505 | 10 | 50 | 12.9 | 17.7 | 0.00 | 0.00 | 0.00 | 46 | 1012.0 |
| 20260507123006 | 10 | 48 | 9.7 | 16.1 | 0.00 | 0.00 | 0.00 | 45 | 1012.0 |
| 20260507122502 | 10 | 47 | 11.3 | 19.3 | 0.00 | 0.00 | 0.00 | 45 | 1012.0 |
| 20260507122001 | 10 | 47 | 12.9 | 20.9 | 0.00 | 0.00 | 0.00 | 45 | 1011.8 |
| 20260507121621 | 9 | 66 | 12.9 | 20.9 | 0.00 | 0.00 | 0.00 | 45 | 1011.8 |
| 20260507121100 | 9 | 66 | 11.3 | 19.3 | 0.00 | 0.00 | 0.00 | 44 | 1011.7 |
| 20260507120559 | 8 | 64 | 11.3 | 17.7 | 0.00 | 0.00 | 0.00 | 43 | 1011.8 |
| 20260507120105 | 8 | 64 | 9.7 | 17.7 | 0.00 | 0.00 | 0.00 | 43 | 1011.8 |
| 20260507115558 | 8 | 71 | 11.3 | 17.7 | 0.00 | 0.00 | 0.00 | 42 | 1011.7 |
| 20260507115056 | 8 | 60 | 8.0 | 14.5 | 0.00 | 0.00 | 0.00 | 42 | 1011.7 |
| 20260507114635 | 8 | 48 | 6.4 | 14.5 | 0.00 | 0.00 | 0.00 | 42 | 1011.7 |
| 20260507114059 | 8 | 66 | 8.0 | 14.5 | 0.00 | 0.00 | 0.00 | 42 | 1011.6 |
| 20260507113555 | 8 | 81 | 4.8 | 9.7 | 0.00 | 0.00 | 0.00 | 41 | 1011.6 |
| 20260507113055 | 8 | 68 | 4.8 | 8.0 | 0.00 | 0.00 | 0.00 | 40 | 1011.7 |
| 20260507112554 | 8 | 59 | 4.8 | 8.0 | 0.00 | 0.00 | 0.00 | 38 | 1011.6 |
| 20260507112054 | 8 | 91 | 3.2 | 9.7 | 0.00 | 0.00 | 0.00 | 37 | 1011.6 |
| 20260507111558 | 8 | 98 | 4.8 | 11.3 | 0.00 | 0.00 | 0.00 | 35 | 1011.6 |
| 20260507111053 | 8 | 84 | 4.8 | 11.3 | 0.00 | 0.00 | 0.00 | 34 | 1011.6 |
| 20260507110551 | 9 | 79 | 6.4 | 9.7 | 0.00 | 0.00 | 0.00 | 33 | 1011.8 |
| 20260507110051 | 9 | 104 | 3.2 | 11.3 | 0.00 | 0.00 | 0.00 | 33 | 1011.8 |
| 20260507105549 | 9 | 126 | 8.0 | 11.3 | 0.00 | 0.00 | 0.00 | 33 | 1011.7 |
| 20260507105047 | 10 | 76 | 6.4 | 8.0 | 0.00 | 0.00 | 0.00 | 32 | 1011.5 |
| 20260507104546 | 10 | 56 | 3.2 | 4.8 | 0.00 | 0.00 | 0.00 | 31 | 1011.5 |
| 20260507104045 | 10 | 56 | 0.0 | 8.0 | 0.00 | 0.00 | 0.00 | 31 | 1011.5 |
| 20260507103545 | 10 | 56 | 3.2 | 12.9 | 0.00 | 0.00 | 0.00 | 30 | 1011.4 |
| 20260507103045 | 10 | 76 | 8.0 | 14.5 | 0.00 | 0.00 | 0.00 | 31 | 1011.3 |
| 20260507102544 | 10 | 78 | 9.7 | 16.1 | 0.00 | 0.00 | 0.00 | 31 | 1011.3 |
| 20260507102045 | 10 | 110 | 9.7 | 14.5 | 0.00 | 0.00 | 0.00 | 31 | 1011.4 |
| 20260507101545 | 11 | 107 | 6.4 | 14.5 | 0.00 | 0.00 | 0.00 | 30 | 1011.4 |
| 20260507101040 | 11 | 51 | 8.0 | 14.5 | 0.00 | 0.00 | 0.00 | 30 | 1011.4 |
| 20260507100539 | 11 | 54 | 8.0 | 14.5 | 0.00 | 0.00 | 0.00 | 30 | 1011.2 |
| 20260507100039 | 11 | 54 | 9.7 | 16.1 | 0.00 | 0.00 | 0.00 | 29 | 1011.2 |
| 20260507095537 | 11 | 37 | 9.7 | 16.1 | 0.00 | 0.00 | 0.00 | 29 | 1011.1 |
| 20260507095037 | 11 | 41 | 9.7 | 17.7 | 0.00 | 0.00 | 0.00 | 29 | 1011.1 |
| 20260507094536 | 12 | 21 | 12.9 | 19.3 | 0.00 | 0.00 | 0.00 | 28 | 1011.1 |
| 20260507094037 | 12 | 31 | 11.3 | 19.3 | 0.00 | 0.00 | 0.00 | 28 | 1011.1 |
| 20260507093535 | 12 | 32 | 11.3 | 17.7 | 0.00 | 0.00 | 0.00 | 27 | 1011.0 |
| 20260507093035 | 12 | 46 | 11.3 | 17.7 | 0.00 | 0.00 | 0.00 | 27 | 1011.1 |
| 20260507092535 | 13 | 35 | 9.7 | 19.3 | 0.00 | 0.00 | 0.00 | 26 | 1011.0 |
| 20260507092034 | 13 | 28 | 11.3 | 19.3 | 0.00 | 0.00 | 0.00 | 25 | 1011.0 |
| 20260507091542 | 13 | 47 | 6.4 | 11.3 | 0.00 | 0.00 | 0.00 | 25 | 1011.0 |
| 20260507091034 | 13 | 50 | 6.4 | 14.5 | 0.00 | 0.00 | 0.00 | 25 | 1010.9 |
| 20260507090537 | 13 | 46 | 8.0 | 14.5 | 0.00 | 0.00 | 0.00 | 26 | 1010.9 |
| 20260507090038 | 13 | 50 | 9.7 | 14.5 | 0.00 | 0.00 | 0.00 | 26 | 1010.9 |
| 20260507085536 | 12 | 68 | 9.7 | 12.9 | 0.00 | 0.00 | 0.00 | 28 | 1011.0 |
| 20260507085034 | 11 | 87 | 4.8 | 9.7 | 0.00 | 0.00 | 0.00 | 29 | 1011.0 |
| 20260507084532 | 11 | 77 | 4.8 | 12.9 | 0.00 | 0.00 | 0.00 | 29 | 1011.0 |
| 20260507084033 | 11 | 63 | 8.0 | 11.3 | 0.00 | 0.00 | 0.00 | 30 | 1010.9 |
| 20260507083531 | 11 | 42 | 9.7 | 11.3 | 0.00 | 0.00 | 0.00 | 30 | 1010.9 |
| 20260507083032 | 12 | 40 | 8.0 | 11.3 | 0.00 | 0.00 | 0.00 | 29 | 1010.9 |
| 20260507082529 | 12 | 48 | 6.4 | 8.0 | 0.00 | 0.00 | 0.00 | 28 | 1010.9 |
| 20260507082027 | 12 | 59 | 4.8 | 8.0 | 0.00 | 0.00 | 0.00 | 27 | 1011.0 |
| 20260507081527 | 13 | 56 | 3.2 | 8.0 | 0.00 | 0.00 | 0.00 | 27 | 1011.0 |
| 20260507081027 | 13 | 56 | 4.8 | 12.9 | 0.00 | 0.00 | 0.00 | 26 | 1011.0 |
| 20260507080527 | 12 | 59 | 6.4 | 14.5 | 0.00 | 0.00 | 0.00 | 27 | 1011.0 |
| 20260507080027 | 12 | 81 | 11.3 | 14.5 | 0.00 | 0.00 | 0.00 | 27 | 1011.0 |
| 20260507075525 | 12 | 85 | 8.0 | 12.9 | 0.00 | 0.00 | 0.00 | 27 | 1010.9 |
| 20260507075024 | 13 | 84 | 6.4 | 9.7 | 0.00 | 0.00 | 0.00 | 26 | 1010.9 |
| 20260507074524 | 13 | 64 | 3.2 | 9.7 | 0.00 | 0.00 | 0.00 | 26 | 1010.9 |
| 20260507074022 | 13 | 55 | 6.4 | 14.5 | 0.00 | 0.00 | 0.00 | 26 | 1010.9 |
| 20260507073521 | 13 | 52 | 9.7 | 14.5 | 0.00 | 0.00 | 0.00 | 26 | 1010.9 |
| 20260507073021 | 12 | 60 | 8.0 | 12.9 | 0.00 | 0.00 | 0.00 | 26 | 1011.0 |
| 20260507072521 | 13 | 80 | 8.0 | 11.3 | 0.00 | 0.00 | 0.00 | 27 | 1011.1 |
| 20260507072019 | 13 | 69 | 6.4 | 9.7 | 0.00 | 0.00 | 0.00 | 26 | 1011.1 |
| 20260507071518 | 13 | 88 | 6.4 | 9.7 | 0.00 | 0.00 | 0.00 | 27 | 1011.1 |
| 20260507071017 | 13 | 80 | 4.8 | 9.7 | 0.00 | 0.00 | 0.00 | 27 | 1011.1 |
| 20260507070516 | 13 | 64 | 3.2 | 9.7 | 0.00 | 0.00 | 0.00 | 26 | 1011.1 |
| 20260507070017 | 13 | 63 | 4.8 | 9.7 | 0.00 | 0.00 | 0.00 | 26 | 1011.1 |
| 20260507065514 | 13 | 81 | 4.8 | 9.7 | 0.00 | 0.00 | 0.00 | 25 | 1011.1 |
| 20260507065014 | 13 | 66 | 6.4 | 9.7 | 0.00 | 0.00 | 0.00 | 25 | 1011.1 |
| 20260507064514 | 14 | 81 | 4.8 | 9.7 | 0.00 | 0.00 | 0.00 | 24 | 1011.0 |
| 20260507064013 | 13 | 71 | 8.0 | 14.5 | 0.00 | 0.00 | 0.00 | 24 | 1011.1 |
| 20260507063511 | 13 | 71 | 9.7 | 14.5 | 0.00 | 0.00 | 0.00 | 25 | 1011.1 |
| 20260507063011 | 13 | 83 | 11.3 | 14.5 | 0.00 | 0.00 | 0.00 | 25 | 1011.1 |
| 20260507062509 | 13 | 69 | 9.7 | 12.9 | 0.00 | 0.00 | 0.00 | 25 | 1011.1 |
| 20260507062108 | 13 | 69 | 8.0 | 11.3 | 0.00 | 0.00 | 0.00 | 26 | 1011.0 |
| 20260507061508 | 13 | 75 | 3.2 | 8.0 | 0.00 | 0.00 | 0.00 | 25 | 1011.0 |
| 20260507061007 | 13 | 73 | 6.4 | 9.7 | 0.00 | 0.00 | 0.00 | 25 | 1011.0 |
| 20260507060506 | 13 | 74 | 4.8 | 12.9 | 0.00 | 0.00 | 0.00 | 25 | 1011.0 |
| 20260507060005 | 13 | 74 | 8.0 | 12.9 | 0.00 | 0.00 | 0.00 | 25 | 1011.1 |
| 20260507055505 | 14 | 88 | 6.4 | 11.3 | 0.00 | 0.00 | 0.00 | 24 | 1011.1 |
| 20260507055003 | 14 | 88 | 8.0 | 12.9 | 0.00 | 0.00 | 0.00 | 23 | 1011.1 |
| 20260507054506 | 14 | 69 | 6.4 | 12.9 | 0.00 | 0.00 | 0.00 | 24 | 1011.0 |
| 20260507054001 | 15 | 110 | 3.2 | 6.4 | 0.00 | 0.00 | 0.00 | 24 | 1010.9 |
| 20260507053503 | 15 | 109 | 0.0 | 4.8 | 0.00 | 0.00 | 0.00 | 22 | 1010.8 |
| 20260507053001 | 15 | 110 | 1.6 | 9.7 | 0.00 | 0.00 | 0.00 | 22 | 1010.8 |
| 20260507052502 | 15 | 110 | 4.8 | 14.5 | 0.00 | 0.00 | 0.00 | 21 | 1010.7 |
| 20260507052002 | 16 | 107 | 4.8 | 14.5 | 0.00 | 0.00 | 0.00 | 21 | 1010.8 |
| 20260507051501 | 16 | 116 | 8.0 | 11.3 | 0.00 | 0.00 | 0.00 | 20 | 1010.9 |
| 20260507051001 | 16 | 96 | 6.4 | 11.3 | 0.00 | 0.00 | 0.00 | 20 | 1010.8 |
| 20260507050559 | 16 | 360 | 3.2 | 6.4 | 0.00 | 0.00 | 0.00 | 20 | 1010.8 |
| 20260507050059 | 17 | 291 | 1.6 | 8.0 | 0.00 | 0.00 | 0.00 | 19 | 1010.6 |
| 20260507045559 | 17 | 291 | 1.6 | 8.0 | 0.00 | 0.00 | 0.00 | 19 | 1010.6 |
| 20260507045057 | 17 | 219 | 4.8 | 8.0 | 0.00 | 0.00 | 0.00 | 18 | 1010.5 |
| 20260507044558 | 17 | 209 | 1.6 | 8.0 | 0.00 | 0.00 | 0.00 | 18 | 1010.5 |
| 20260507044057 | 17 | 210 | 3.2 | 9.7 | 0.00 | 0.00 | 0.00 | 18 | 1010.5 |
| 20260507043557 | 17 | 198 | 3.2 | 8.0 | 0.00 | 0.00 | 0.00 | 18 | 1010.5 |
| 20260507043056 | 17 | 226 | 3.2 | 12.9 | 0.00 | 0.00 | 0.00 | 19 | 1010.5 |
| 20260507042556 | 16 | 262 | 3.2 | 12.9 | 0.00 | 0.00 | 0.00 | 20 | 1010.3 |
| 20260507042056 | 16 | 161 | 6.4 | 9.7 | 0.00 | 0.00 | 0.00 | 20 | 1010.3 |
| 20260507041556 | 16 | 161 | 3.2 | 4.8 | 0.00 | 0.00 | 0.00 | 20 | 1010.2 |
| 20260507041056 | 16 | 161 | 3.2 | 9.7 | 0.00 | 0.00 | 0.00 | 20 | 1010.2 |
| 20260507040557 | 17 | 161 | 6.4 | 9.7 | 0.00 | 0.00 | 0.00 | 19 | 1010.2 |
| 20260507040100 | 18 | 177 | 4.8 | 6.4 | 0.00 | 0.00 | 0.00 | 18 | 1010.1 |
| 20260507035555 | 18 | 293 | 0.0 | 6.4 | 0.00 | 0.00 | 0.00 | 17 | 1010.1 |
| 20260507035055 | 18 | 293 | 1.6 | 12.9 | 0.00 | 0.00 | 0.00 | 17 | 1010.1 |
| 20260507034557 | 18 | 292 | 6.4 | 16.1 | 0.00 | 0.00 | 0.00 | 17 | 1009.9 |
| 20260507034054 | 18 | 253 | 9.7 | 20.9 | 0.00 | 0.00 | 0.00 | 17 | 1009.8 |
| 20260507033554 | 19 | 265 | 11.3 | 20.9 | 0.00 | 0.00 | 0.00 | 16 | 1009.7 |
| 20260507033100 | 19 | 274 | 12.9 | 22.5 | 0.00 | 0.00 | 0.00 | 16 | 1009.7 |
| 20260507032554 | 19 | 246 | 12.9 | 22.5 | 0.00 | 0.00 | 0.00 | 16 | 1009.7 |
| 20260507032055 | 18 | 241 | 11.3 | 19.3 | 0.00 | 0.00 | 0.00 | 16 | 1009.6 |
| 20260507031553 | 18 | 255 | 6.4 | 16.1 | 0.00 | 0.00 | 0.00 | 16 | 1009.5 |
| 20260507031053 | 18 | 245 | 8.0 | 16.1 | 0.00 | 0.00 | 0.00 | 16 | 1009.5 |
| 20260507030556 | 18 | 222 | 4.8 | 8.0 | 0.00 | 0.00 | 0.00 | 16 | 1009.5 |
| 20260507030053 | 19 | 245 | 4.8 | 11.3 | 0.00 | 0.00 | 0.00 | 16 | 1009.4 |
| 20260507025552 | 19 | 240 | 6.4 | 11.3 | 0.00 | 0.00 | 0.00 | 15 | 1009.3 |
| 20260507025152 | 18 | 270 | 4.8 | 8.0 | 0.00 | 0.00 | 0.00 | 16 | 1009.3 |
| 20260507024604 | 19 | 306 | 0.0 | 8.0 | 0.00 | 0.00 | 0.00 | 16 | 1009.1 |
| 20260507024055 | 19 | 305 | 3.2 | 8.0 | 0.00 | 0.00 | 0.00 | 15 | 1009.1 |
| 20260507023555 | 20 | 310 | 4.8 | 9.7 | 0.00 | 0.00 | 0.00 | 15 | 1008.9 |
| 20260507023052 | 20 | 265 | 3.2 | 17.7 | 0.00 | 0.00 | 0.00 | 15 | 1008.8 |
| 20260507022555 | 20 | 250 | 9.7 | 17.7 | 0.00 | 0.00 | 0.00 | 15 | 1008.8 |
| 20260507022050 | 20 | 249 | 8.0 | 22.5 | 0.00 | 0.00 | 0.00 | 14 | 1008.6 |
| 20260507021552 | 20 | 228 | 12.9 | 22.5 | 0.00 | 0.00 | 0.00 | 14 | 1008.6 |
| 20260507021049 | 20 | 227 | 8.0 | 20.9 | 0.00 | 0.00 | 0.00 | 14 | 1008.6 |
| 20260507020549 | 21 | 235 | 12.9 | 20.9 | 0.00 | 0.00 | 0.00 | 14 | 1008.4 |
| 20260507020106 | 21 | 242 | 6.4 | 20.9 | 0.00 | 0.00 | 0.00 | 14 | 1008.5 |
| 20260507015550 | 21 | 258 | 14.5 | 25.7 | 0.00 | 0.00 | 0.00 | 14 | 1008.4 |
| 20260507015048 | 21 | 252 | 14.5 | 29.0 | 0.00 | 0.00 | 0.00 | 13 | 1008.3 |
| 20260507014552 | 21 | 265 | 17.7 | 30.6 | 0.00 | 0.00 | 0.00 | 14 | 1008.3 |
| 20260507014047 | 21 | 244 | 14.5 | 25.7 | 0.00 | 0.00 | 0.00 | 14 | 1008.2 |
| 20260507013547 | 21 | 256 | 19.3 | 27.4 | 0.00 | 0.00 | 0.00 | 13 | 1008.2 |
| 20260507013054 | 22 | 248 | 17.7 | 27.4 | 0.00 | 0.00 | 0.00 | 13 | 1008.2 |
| 20260507012546 | 22 | 262 | 14.5 | 29.0 | 0.00 | 0.00 | 0.00 | 14 | 1008.2 |
| 20260507012046 | 22 | 272 | 17.7 | 29.0 | 0.00 | 0.00 | 0.00 | 14 | 1008.2 |
| 20260507011546 | 22 | 258 | 16.1 | 27.4 | 0.00 | 0.00 | 0.00 | 14 | 1008.1 |
| 20260507011045 | 22 | 222 | 16.1 | 27.4 | 0.00 | 0.00 | 0.00 | 13 | 1008.1 |
| 20260507010545 | 22 | 276 | 20.9 | 32.2 | 0.00 | 0.00 | 0.00 | 14 | 1008.0 |
| 20260507010048 | 22 | 302 | 20.9 | 35.4 | 0.00 | 0.00 | 0.00 | 14 | 1008.0 |
| 20260507005545 | 22 | 251 | 20.9 | 35.4 | 0.00 | 0.00 | 0.00 | 14 | 1007.9 |
| 20260507005047 | 22 | 272 | 19.3 | 30.6 | 0.00 | 0.00 | 0.00 | 14 | 1007.9 |
| 20260507004553 | 22 | 249 | 19.3 | 30.6 | 0.00 | 0.00 | 0.00 | 13 | 1007.9 |
| 20260507004044 | 22 | 263 | 17.7 | 37.0 | 0.00 | 0.00 | 0.00 | 14 | 1007.7 |
| 20260507003543 | 22 | 250 | 24.1 | 37.0 | 0.00 | 0.00 | 0.00 | 14 | 1007.8 |
| 20260507003048 | 22 | 264 | 17.7 | 29.0 | 0.00 | 0.00 | 0.00 | 13 | 1007.7 |
| 20260507002543 | 22 | 282 | 16.1 | 30.6 | 0.00 | 0.00 | 0.00 | 14 | 1007.7 |
| 20260507002042 | 22 | 231 | 19.3 | 37.0 | 0.00 | 0.00 | 0.00 | 14 | 1007.6 |
| 20260507001545 | 22 | 244 | 22.5 | 37.0 | 0.00 | 0.00 | 0.00 | 14 | 1007.6 |
| 20260507001041 | 22 | 243 | 20.9 | 38.6 | 0.00 | 0.00 | 0.00 | 14 | 1007.5 |
| 20260507000545 | 22 | 252 | 27.4 | 38.6 | 0.00 | 0.00 | 0.00 | 14 | 1007.6 |
| 20260507000041 | 22 | 280 | 20.9 | 32.2 | 0.00 | 0.00 | 0.00 | 14 | 1007.6 |
| 20260506235539 | 22 | 247 | 20.9 | 35.4 | 0.00 | 0.00 | 0.00 | 14 | 1007.5 |
| 20260506235039 | 22 | 253 | 24.1 | 35.4 | 0.00 | 0.00 | 0.00 | 14 | 1007.5 |
| 20260506234543 | 23 | 257 | 20.9 | 38.6 | 0.00 | 0.00 | 0.00 | 14 | 1007.3 |
| 20260506234038 | 22 | 260 | 17.7 | 38.6 | 0.00 | 0.00 | 0.00 | 14 | 1007.3 |
| 20260506233638 | 23 | 245 | 20.9 | 33.8 | 0.00 | 0.00 | 0.00 | 14 | 1007.4 |
| 20260506233041 | 22 | 256 | 19.3 | 49.9 | 0.00 | 0.00 | 0.00 | 14 | 1007.4 |
| 20260506232536 | 22 | 258 | 25.7 | 49.9 | 0.00 | 0.00 | 0.00 | 14 | 1007.5 |
| 20260506232036 | 22 | 266 | 30.6 | 48.3 | 0.00 | 0.00 | 0.00 | 14 | 1007.5 |
| 20260506231536 | 22 | 231 | 24.1 | 40.2 | 0.00 | 0.00 | 0.00 | 14 | 1007.5 |
| 20260506231037 | 22 | 276 | 17.7 | 33.8 | 0.00 | 0.00 | 0.00 | 14 | 1007.5 |
| 20260506230536 | 22 | 281 | 25.7 | 35.4 | 0.00 | 0.00 | 0.00 | 14 | 1007.6 |
| 20260506230044 | 22 | 277 | 24.1 | 48.3 | 0.00 | 0.00 | 0.00 | 14 | 1007.6 |
| 20260506225534 | 23 | 270 | 19.3 | 48.3 | 0.00 | 0.00 | 0.00 | 14 | 1007.6 |
| 20260506225034 | 22 | 273 | 27.4 | 40.2 | 0.00 | 0.00 | 0.00 | 14 | 1007.5 |
| 20260506224534 | 22 | 259 | 24.1 | 33.8 | 0.00 | 0.00 | 0.00 | 14 | 1007.6 |
| 20260506224032 | 23 | 239 | 22.5 | 41.8 | 0.00 | 0.00 | 0.00 | 14 | 1007.6 |
| 20260506223532 | 23 | 246 | 22.5 | 43.5 | 0.00 | 0.00 | 0.00 | 14 | 1007.6 |
| 20260506223041 | 22 | 272 | 19.3 | 40.2 | 0.00 | 0.00 | 0.00 | 14 | 1007.7 |
| 20260506222531 | 22 | 258 | 27.4 | 40.2 | 0.00 | 0.00 | 0.00 | 14 | 1007.7 |
| 20260506222031 | 23 | 210 | 25.7 | 38.6 | 0.00 | 0.00 | 0.00 | 14 | 1007.7 |
| 20260506221632 | 22 | 253 | 24.1 | 35.4 | 0.00 | 0.00 | 0.00 | 15 | 1007.7 |
| 20260506221029 | 22 | 238 | 14.5 | 37.0 | 0.00 | 0.00 | 0.00 | 15 | 1007.6 |
| 20260506220529 | 22 | 250 | 19.3 | 38.6 | 0.00 | 0.00 | 0.00 | 15 | 1007.7 |
| 20260506220028 | 23 | 203 | 25.7 | 38.6 | 0.00 | 0.00 | 0.00 | 16 | 1007.7 |
| 20260506215527 | 23 | 285 | 19.3 | 37.0 | 0.00 | 0.00 | 0.00 | 17 | 1007.8 |
| 20260506215029 | 22 | 266 | 17.7 | 38.6 | 0.00 | 0.00 | 0.00 | 16 | 1007.8 |
| 20260506214537 | 22 | 270 | 27.4 | 43.5 | 0.00 | 0.00 | 0.00 | 16 | 1007.9 |
| 20260506214025 | 22 | 290 | 22.5 | 43.5 | 0.00 | 0.00 | 0.00 | 16 | 1007.9 |
| 20260506213528 | 22 | 260 | 19.3 | 30.6 | 0.00 | 0.00 | 0.00 | 16 | 1008.0 |